Retour au catalogue

COSMOS 2585

ActifNavigationPO
NORAD 63288·PAYLOAD·🇷🇺 Russia

Lancé Mar 16, 2025 depuis Plesetsk Cosmodrome

Loading…

Prochains Passages (prochaines 24 heures)

TLE

FraisSource: Space-Track

Époque: Sep 14, 2026, 19:32 UTC

1 63288U 25054A   26257.81440610  .00000030  00000-0  14681-3 0  9995
2 63288  82.4975  22.8397 0024517 197.5862 162.4371 12.42870873 67999

Suivez COSMOS 2585 en temps réel avec AllMySat

Download on the App Store